Nashville, TN

10:44 PM CDT on September 19, 2019 (GMT -0500)
Nashville International

Weather History for KBNA - August, 2019

Change the Weather History Date:

Sunday, August 25, 2019

  Actual Average Record
Temperature  
Mean Temperature 78 °F 78 °F  
Max Temperature 84 °F 89 °F 102 °F (1943)
Min Temperature 71 °F 68 °F 51 °F (1891)
Degree Days  
Heating Degree Days 0    
Month to date heating degree days 0  
Since 1 June heating degree days 0  
Since 1 July heating degree days 0  
Cooling Degree Days 13    
Month to date cooling degree days 415  
Year to date cooling degree days 1635  
Since 1 June cooling degree days 1299  
Growing Degree Days 28 (Base 50)    
Moisture  
Dew Point 69 °F    
Average Humidity 80    
Maximum Humidity 93    
Minimum Humidity 67    
Precipitation  
Precipitation 0.76 in 0.10 in 3.30 in (1976)
Month to date precipitation 4.50 2.60  
Year to date precipitation 47.12 31.68  
Sea Level Pressure  
Sea Level Pressure 29.98 in    
Wind  
Wind Speed 5 mph ()    
Max Wind Speed 17 mph    
Max Gust Speed 22 mph    
Visibility 8.5 miles    
Events Rain , Thunderstorm    
T = Trace of Precipitation, MM = Missing Value Source: Averaged Metar Reports

Daily Weather History Graph

Daily Weather History Graph

Search for Another Location

Airport or City:

Astronomy

Aug. 25, 2019 Rise Set
Actual Time 6:12 AM CDT 7:24 PM CDT
Civil Twilight 5:46 AM CDT 7:50 PM CDT
Nautical Twilight 5:14 AM CDT 8:22 PM CDT
Astronomical Twilight 4:41 AM CDT 8:55 PM CDT
Moon 12:52 AM CDT (8/25) 3:38 PM CDT (8/25)
Length of Visible Light 14h 04m
Length of Day
13h 11m
Waning Crescent, 29% of the Moon is Illuminated
Aug 25
Waning Crescent
Aug 30
New
Sep 5
First Quarter
Sep 13
Full
Sep 21
Last Quarter

Hourly Weather History & Observations

Time (CDT) Temp. Heat Index Dew Point Humidity Pressure Visibility Wind Dir Wind Speed Gust Speed Precip Events Conditions
12:53 AM 73.9 °F - 66.0 °F 76% 30.02 in 10.0 mi NE 5.8 mph - N/A   Overcast
1:53 AM 73.0 °F - 66.0 °F 79% 30.00 in 10.0 mi NE 5.8 mph - N/A   Mostly Cloudy
2:53 AM 73.0 °F - 64.9 °F 76% 29.99 in 10.0 mi NE 3.5 mph - N/A   Mostly Cloudy
3:53 AM 72.0 °F - 64.9 °F 78% 29.98 in 10.0 mi NE 5.8 mph - N/A   Overcast
4:53 AM 71.1 °F - 64.9 °F 81% 29.98 in 10.0 mi NNE 3.5 mph - N/A   Overcast
5:53 AM 71.1 °F - 66.0 °F 84% 29.99 in 10.0 mi Calm Calm - N/A   Mostly Cloudy
6:53 AM 72.0 °F - 66.0 °F 81% 30.00 in 10.0 mi Calm Calm - N/A   Mostly Cloudy
7:53 AM 75.0 °F - 68.0 °F 79% 30.01 in 10.0 mi Calm Calm - N/A   Mostly Cloudy
8:53 AM 78.1 °F - 70.0 °F 76% 30.01 in 10.0 mi SSE 4.6 mph - N/A   Mostly Cloudy
9:53 AM 79.0 °F - 70.0 °F 74% 30.01 in 10.0 mi South 9.2 mph - N/A   Overcast
10:53 AM 82.0 °F 86.3 °F 71.1 °F 69% 30.01 in 10.0 mi South 9.2 mph - N/A   Overcast
11:53 AM 82.9 °F 87.5 °F 71.1 °F 67% 29.99 in 10.0 mi South 8.1 mph - N/A   Overcast
12:53 PM 82.9 °F 88.0 °F 72.0 °F 69% 29.98 in 10.0 mi SSE 8.1 mph 18.4 mph N/A Thunderstorm Overcast
1:34 PM 82.9 °F 87.5 °F 71.1 °F 67% 29.99 in 10.0 mi South 16.1 mph - N/A   Overcast
1:53 PM 80.1 °F 83.2 °F 70.0 °F 71% 29.98 in 10.0 mi South 13.8 mph - N/A Thunderstorm Overcast
2:09 PM 79.0 °F - 70.0 °F 74% 29.99 in 10.0 mi South 12.7 mph - N/A   Overcast
2:53 PM 79.0 °F - 70.0 °F 74% 29.96 in 10.0 mi SSE 10.4 mph - N/A   Overcast
3:53 PM 80.1 °F 83.2 °F 70.0 °F 71% 29.95 in 10.0 mi South 8.1 mph - N/A   Overcast
4:53 PM 79.0 °F - 70.0 °F 74% 29.95 in 10.0 mi SSE 8.1 mph - 0.00 in Rain Light Rain
5:05 PM 79.0 °F - 69.1 °F 72% 29.97 in 10.0 mi SSE 6.9 mph - 0.00 in   Overcast
5:53 PM 75.9 °F - 71.1 °F 85% 29.94 in 5.0 mi SSE 4.6 mph - 0.04 in Rain Light Rain
6:53 PM 75.9 °F - 72.0 °F 87% 29.95 in 10.0 mi SSE 4.6 mph - 0.00 in Rain Light Rain
7:29 PM 75.9 °F - 72.0 °F 87% 29.97 in 1.8 mi South 3.5 mph - 0.05 in Rain Rain
7:50 PM 75.2 °F - 71.6 °F 89% 29.97 in 4.0 mi South 3.5 mph - 0.19 in Rain Light Rain
7:53 PM 75.0 °F - 72.0 °F 90% 29.96 in 5.0 mi South 4.6 mph - 0.20 in Rain Light Rain
8:09 PM 73.9 °F - 71.1 °F 91% 29.98 in 2.5 mi South 5.8 mph - 0.11 in Rain Heavy Rain
8:15 PM 73.9 °F - 71.1 °F 91% 29.98 in 2.0 mi SSE 6.9 mph - 0.21 in Rain Heavy Rain
8:39 PM 73.9 °F - 71.1 °F 91% 29.98 in 3.0 mi SSE 4.6 mph - 0.45 in Rain Rain
8:53 PM 73.9 °F - 71.1 °F 91% 29.96 in 7.0 mi SE 6.9 mph - 0.48 in Rain Light Rain
9:53 PM 73.9 °F - 70.0 °F 87% 29.98 in 10.0 mi SSE 6.9 mph - 0.01 in   Overcast
10:34 PM 73.0 °F - 69.1 °F 87% 29.99 in 10.0 mi SSE 8.1 mph - N/A   Overcast
10:53 PM 73.0 °F - 70.0 °F 90% 29.97 in 10.0 mi South 8.1 mph - 0.00 in   Overcast
11:53 PM 73.0 °F - 69.1 °F 87% 29.96 in 10.0 mi SSE 9.2 mph - 0.00 in   Overcast